Regional Weather Roundup
Issued by NWS Bismarck, ND

Current Version | Previous Version | Text Only | Print | Product List | Glossary On
Versions: 1 2 3 4 5 6 7 8 9 10 11 12 13 14 15 16 17 18 19 20 21 22 23 24 25 26 27 28 29 30 31 32 33 34 35 36 37 38 39 40 41 42 43 44 45 46 47 48 49 50
000
ASUS43 KBIS 291902
RWRBIS

NWR BROADCAST TEXT
NATIONAL WEATHER SERVICE BISMARCK ND
200 PM CDT FRI JUL 29 2016

NOTE: "FAIR" INDICATES FEW OR NO CLOUDS BELOW 12,000 FEET WITH NO
SIGNIFICANT WEATHER AND/OR OBSTRUCTIONS TO VISIBILITY.


CITY           SKY/WX    TMP DP  RH WIND       PRES   REMARKS
WILLISTON      SUNNY     80  50  34 S6        30.05F
MINOT          LGT RAIN  73  63  70 SE12      30.04F
MINOT AFB      PTSUNNY   75  60  58 SE8       30.03F
BISMARCK       PTSUNNY   79  59  50 CALM      30.06F
DICKINSON      CLOUDY    72  56  57 S8        30.06F
GARRISON         N/A     75  61  61 SW7       30.06F
HETTINGER ARPT MOSUNNY   77  55  46 S9        30.08F
JAMESTOWN      MOSUNNY   77  62  59 SE12      30.07F
CARRINGTON     FAIR      75  61  60 SE6G12    30.09F
HAZEN            N/A     75  57  53 SW3       30.08S
OAKES            N/A    N/A N/A N/A MISG        N/A
STANLEY        CLOUDY    72  59  64 SE6       30.09F
$$

CITY           SKY/WX    TMP DP  RH WIND       PRES   REMARKS
GRAND FORKS    CLOUDY    78  52  40 CALM      30.06S
GRAND FORKS AF CLOUDY    76  55  47 VRB2      30.07S
DEVILS LAKE    MOSUNNY   74  59  59 VRB6      30.08F
FARGO          MOSUNNY   79  57  46 MISG      30.06F
CAVALIER       FAIR      75  55  50 W3        30.07S
GRAFTON        FAIR      75  57  53 VRB5      30.08F
GWINNER        MOCLDY    77  63  61 CALM      30.09S
LANGDON        FAIR      77  57  50 CALM      30.09F
ROLLA            N/A     72  50  46 W3        30.09F
$$

CITY           SKY/WX    TMP DP  RH WIND       PRES   REMARKS
MOBRIDGE       CLOUDY    77  60  55 S3        30.04F
BUFFALO          N/A     79  56  45 S8        30.02F
RAPID CITY     PTSUNNY   78  55  44 VRB7      30.08F
GLASGOW        CLOUDY    77  55  46 S9        30.02F
SIDNEY         MOSUNNY   75  53  46 CALM      30.05F
WOLF POINT     MOSUNNY   78  50  37 CALM      30.03F
GLENDIVE       SUNNY     74  56  53 E5        30.07F
MILES CITY     PTSUNNY   80  53  39 MISG      30.04F
BAKER          MOSUNNY   74  58  57 S3        30.08F
$$

CITY           SKY/WX    TMP DP  RH WIND       PRES   REMARKS
BILLINGS       MOSUNNY   83  49  30 NE9       30.06F
GREAT FALLS    SUNNY     79  50  36 VRB3      30.08F
$$




USA.gov is the U.S. government's official web portal to all federal, state and local government web resources and services.